Waukegan, IL

11:43 AM CDT on March 27, 2017 (GMT -0500)
Waukegan Regional

Weather History for KUGN - January, 2013

Change the Weather History Date:

Friday, January 11, 2013

  Actual Average Record
Temperature  
Mean Temperature 44 °F -  
Max Temperature 52 °F 31 °F 53 °F (2013)
Min Temperature 37 °F 16 °F -4 °F (2016)
Degree Days  
Heating Degree Days 20 42  
Month to date heating degree days 453  
Since 1 July heating degree days 3002  
Cooling Degree Days 0 0  
Month to date cooling degree days 0  
Year to date cooling degree days 0  
Moisture  
Dew Point 44 °F    
Average Humidity 94    
Maximum Humidity 100    
Minimum Humidity 83    
Precipitation  
Precipitation 0.30 in 0.04 in 0.72 in (2005)
Month to date precipitation 0.48  
Year to date precipitation 0.48  
Sea Level Pressure  
Sea Level Pressure 29.74 in    
Wind  
Wind Speed 11 mph (South)    
Max Wind Speed 23 mph    
Max Gust Speed 33 mph    
Visibility 5 miles    
Events Fog , Rain    
T = Trace of Precipitation, MM = Missing Value Source: NWS Daily Summary

Daily Weather History Graph

Daily Weather History Graph

Search for Another Location

Airport or City:

Trip Planner

Search our weather history database for the weather conditions in past years. The results will help you decide how hot, cold, wet, or windy it might be!

Date:

Astronomy

Jan. 11, 2013 Rise Set
Actual Time 7:19 AM CST 4:39 PM CST
Civil Twilight 6:48 AM CST 5:11 PM CST
Nautical Twilight 6:13 AM CST 5:45 PM CST
Astronomical Twilight 5:39 AM CST 6:19 PM CST
Moon 6:51 AM CST (1/11) 4:58 PM CST (1/11)
Length of Visible Light 10h 22m
Length of Day
9h 20m
Waning Crescent, 0% of the Moon is Illuminated
Jan 11
Waning Crescent
Jan 11
New
Jan 18
First Quarter
Jan 26
Full
Feb 3
Last Quarter

Hourly Weather History & Observations

Time (CST) Temp. Windchill Dew Point Humidity Pressure Visibility Wind Dir Wind Speed Gust Speed Precip Events Conditions
12:04 AM 37.4 °F 28.9 °F 37.4 °F 100% 29.88 in 2.0 mi SE 13.8 mph 20.7 mph 0.00 in Rain Light Rain
12:48 AM 37.4 °F 30.8 °F 37.4 °F 100% 29.85 in 3.0 mi SE 9.2 mph - 0.06 in Rain Light Rain
12:52 AM 37.9 °F 30.5 °F 37.9 °F 100% 29.87 in 2.5 mi SE 11.5 mph - 0.06 in Rain Light Rain
1:04 AM 37.4 °F 31.4 °F 37.4 °F 100% 29.84 in 1.8 mi SE 8.1 mph - 0.02 in Rain Light Rain
1:21 AM 37.4 °F 30.3 °F 37.4 °F 100% 29.83 in 2.0 mi SE 10.4 mph - 0.04 in Rain Light Rain
1:32 AM 37.4 °F 30.3 °F 37.4 °F 100% 29.82 in 1.2 mi SE 10.4 mph - 0.05 in Rain Light Rain
1:50 AM 37.4 °F 31.4 °F 37.4 °F 100% 29.81 in 1.2 mi SE 8.1 mph - 0.06 in Rain Light Rain
1:52 AM 39.0 °F 34.8 °F 39.0 °F 100% 29.83 in 1.2 mi SE 5.8 mph - 0.06 in Rain Light Rain
2:52 AM 39.9 °F 33.4 °F 39.9 °F 100% 29.80 in 1.2 mi SSE 10.4 mph - 0.10 in Rain Heavy Rain
3:05 AM 41.0 °F 35.2 °F 39.2 °F 93% 29.77 in 2.5 mi SSE 9.2 mph - 0.07 in Rain Rain
3:09 AM 41.0 °F 35.2 °F 39.2 °F 93% 29.76 in 3.0 mi SSE 9.2 mph - 0.07 in Rain Rain
3:27 AM 41.0 °F 34.3 °F 41.0 °F 100% 29.74 in 1.8 mi SSE 11.5 mph - 0.08 in   Overcast
3:38 AM 42.8 °F 36.6 °F 41.0 °F 93% 29.73 in 0.5 mi SSE 11.5 mph - 0.08 in Fog , Rain Light Rain
3:52 AM 41.0 °F 34.3 °F 41.0 °F 100% 29.74 in 0.2 mi SE 11.5 mph - 0.08 in Fog Fog
4:31 AM 41.0 °F 34.7 °F 41.0 °F 100% 29.66 in 0.2 mi ESE 10.4 mph - N/A Fog Fog
4:52 AM 39.9 °F 35.1 °F 39.9 °F 100% 29.68 in 0.2 mi ESE 6.9 mph - N/A Fog Fog
5:49 AM 42.8 °F 39.3 °F 42.8 °F 100% 29.67 in 0.2 mi SSW 5.8 mph - N/A Fog Fog
6:52 AM 44.1 °F 40.8 °F 43.0 °F 96% 29.69 in 0.2 mi SW 5.8 mph - N/A Fog Fog
7:46 AM 50.0 °F - 50.0 °F 100% 29.69 in 1.0 mi SW 10.4 mph - N/A   Mist
7:47 AM 50.0 °F - 50.0 °F 100% 29.71 in 1.2 mi SW 9.2 mph - N/A   Overcast
7:55 AM 50.0 °F - 50.0 °F 100% 29.69 in 3.0 mi SW 9.2 mph 19.6 mph N/A   Overcast
8:37 AM 48.2 °F - 48.2 °F 100% 29.70 in 8.0 mi SW 6.9 mph - N/A   Overcast
8:52 AM 48.9 °F - 48.0 °F 97% 29.71 in 10.0 mi Variable 6.9 mph - N/A   Overcast
9:52 AM 48.9 °F - 46.9 °F 93% 29.74 in 10.0 mi SW 12.7 mph - N/A   Overcast
10:52 AM 48.0 °F - 46.0 °F 93% 29.75 in 10.0 mi SW 15.0 mph 20.7 mph N/A   Overcast
11:26 AM 46.4 °F 40.7 °F 46.4 °F 100% 29.71 in 4.0 mi SW 12.7 mph 20.7 mph N/A   Overcast
11:52 AM 46.9 °F - 46.0 °F 97% 29.73 in 5.0 mi SW 13.8 mph - N/A   Overcast
12:52 PM 46.9 °F - 45.0 °F 93% 29.74 in 8.0 mi SW 12.7 mph 25.3 mph N/A   Overcast
1:52 PM 48.0 °F - 46.0 °F 93% 29.74 in 8.0 mi SSW 13.8 mph - N/A   Overcast
2:52 PM 48.9 °F - 46.0 °F 90% 29.74 in 6.0 mi SSW 12.7 mph - N/A   Overcast
3:52 PM 50.0 °F - 46.0 °F 86% 29.73 in 7.0 mi South 12.7 mph - N/A   Overcast
4:52 PM 50.0 °F - 46.0 °F 86% 29.73 in 8.0 mi South 13.8 mph - N/A   Overcast
5:52 PM 50.0 °F - 46.0 °F 86% 29.71 in 9.0 mi South 12.7 mph - N/A   Partly Cloudy
6:14 PM 50.0 °F - 46.4 °F 87% 29.70 in 8.0 mi South 15.0 mph - N/A   Mostly Cloudy
6:50 PM 50.0 °F - 46.4 °F 87% 29.71 in 9.0 mi South 13.8 mph 24.2 mph N/A   Scattered Clouds
6:52 PM 50.0 °F - 46.9 °F 89% 29.73 in 9.0 mi South 16.1 mph 24.2 mph N/A   Scattered Clouds
7:52 PM 51.1 °F - 46.9 °F 86% 29.70 in 10.0 mi South 17.3 mph 24.2 mph N/A   Clear
8:52 PM 52.0 °F - 46.9 °F 83% 29.69 in 10.0 mi South 17.3 mph 26.5 mph N/A   Clear
9:52 PM 52.0 °F - 46.9 °F 83% 29.68 in 10.0 mi South 16.1 mph 23.0 mph N/A   Clear
10:52 PM 52.0 °F - 46.9 °F 83% 29.67 in 10.0 mi South 20.7 mph 31.1 mph N/A   Clear
11:52 PM 52.0 °F - 46.9 °F 83% 29.67 in 10.0 mi SSW 23.0 mph 33.4 mph N/A   Clear